[[{"header":{"parameterUnit":"m.s-1","parameterCategory":1,"la1":30.2991,"la2":30.254,"lo1":-89.0895,"lo2":-89.0444,"dy":0.0017,"dx":0.0017,"nx":28,"ny":28,"refTime":"2024-06-21T21:00:00:Z","depth":0,"parameterNumber":2,"parameterNumberName":"U-component_of_WINDS"},"data":[0,0,0,0,0,0,0,0,0,0,0,0,0,0,0,0,0,0,0,0,0,0,0,0,0,0,0,0,0,0,0,0,0,0,0,0,0,0,0,0,0,0,0,0,0,0,0,0,0,0,0,0,0,0,0,0,0,0,1.325,1.3251,0,1.3387,1.3388,1.339,1.3394,1.3392,1.3391,1.3389,1.3533,1.3538,1.3544,0,0,0,0,0,0,0,0,0,0,0,0,0,1.2994,1.2998,1.325,1.3251,1.3253,1.3386,1.3388,1.339,1.3394,1.3392,1.339,1.3388,1.3531,1.3538,1.3544,0,0,0,0,0,0,0,0,0,0,0,0,0,1.3115,1.3,1.3249,1.3271,1.3274,1.3386,1.3388,1.3391,1.3395,1.3392,1.339,1.3387,1.3529,1.3537,1.3545,1.3646,0,0,1.357,1.3573,0,0,0,0,0,0,0,0,1.3108,1.3125,1.3266,1.327,1.3274,1.3371,1.3351,1.3476,1.3395,1.3349,1.3389,1.3386,1.3481,1.3493,1.3525,1.3652,1.3658,1.3571,1.3576,1.3579,1.3581,0,0,0,0,0,0,0,1.31,1.3119,1.3304,1.3268,1.3273,1.3275,1.3289,1.3375,1.3428,1.3353,1.3354,1.337,1.3483,1.3517,1.3528,1.3661,1.357,1.3578,1.3583,1.3586,1.3876,1.3878,0,0,0,0,0,0,1.3087,1.3112,1.33,1.3308,1.3183,1.3281,1.3298,1.3342,1.3427,1.3437,1.3372,1.3369,1.3504,1.3519,1.3533,1.3655,1.3579,1.3587,1.3591,1.3873,1.3876,1.3879,0,0,0,0,0,0,1.3081,1.3104,1.3294,1.321,1.3235,1.3288,1.3338,1.3346,1.338,1.3441,1.3451,1.3396,1.3503,1.3522,1.3617,1.366,1.359,1.3598,1.387,1.3874,1.3878,1.39,0,0,0,0,0,0,1.3074,1.3102,1.314,1.3211,1.3239,1.3375,1.3341,1.3351,1.3393,1.3392,1.3467,1.3477,1.3502,1.3605,1.3625,1.367,1.3604,1.3866,1.3872,1.3877,1.3896,1.3905,1.3912,0,0,0,0,0,1.3065,1.3142,1.3142,1.3164,1.3288,1.3377,1.3394,1.342,1.3397,1.3436,1.3475,1.3474,1.3652,1.3615,1.3637,1.3685,1.3863,1.387,1.3876,1.3892,1.3903,1.3912,0,0,0,0,0,0,1.3076,1.3152,1.3152,1.3255,1.3309,1.3378,1.3428,1.3431,1.3495,1.3491,1.3523,1.3539,1.3634,1.3669,1.3626,1.3786,1.3755,1.3766,1.3759,1.377,1.3778,1.3768,1.3611,0,0,0,0,0,1.309,1.3156,1.3219,1.3303,1.333,1.3374,1.3414,1.343,1.3489,1.3512,1.3558,1.3616,1.3685,1.373,1.3796,1.3901,1.3917,1.3945,1.3953,1.396,1.3969,1.4026,1.4039,1.3901,1.39,1.39,0,0,1.3121,1.317,1.321,1.3306,1.335,1.3418,1.3394,1.3467,1.3518,1.3524,1.3616,1.3651,1.3718,1.3818,1.3864,1.385,1.401,1.3968,1.3972,1.3979,1.4033,1.4046,1.4058,1.3905,1.3904,1.3903,0,0,1.321,1.3254,1.3328,1.3373,1.3439,1.3468,1.3486,1.3554,1.3577,1.367,1.3675,1.3736,1.3854,1.3901,1.394,1.4045,1.4047,1.4066,1.4109,1.4164,1.4175,1.4184,1.4221,1.4234,1.4075,1.4075,1.4075,0,1.324,1.3341,1.3366,1.3439,1.3481,1.3488,1.3563,1.3605,1.3691,1.372,1.3703,1.385,1.3895,1.4005,1.4031,1.4063,1.4083,1.4058,1.4171,1.4181,1.419,1.4226,1.4239,1.4077,1.4077,1.4077,1.4077,0,1.3373,1.3444,1.3496,1.3576,1.3624,1.3698,1.3734,1.378,1.3791,1.3822,1.3915,1.3969,1.4046,1.4074,1.4087,1.4186,1.4175,1.4164,1.4133,1.4205,1.4238,1.4252,1.408,1.4079,1.4079,1.4078,0,0,1.3475,1.3567,1.3586,1.3622,1.3695,1.375,1.3824,1.3897,1.3935,1.3994,1.4056,1.4155,1.4145,1.4189,1.4207,1.4255,1.4333,1.4238,1.424,1.4253,1.4444,1.4451,1.4466,1.4334,1.4337,1.4339,1.4438,0,1.3572,1.3702,1.3726,1.3839,1.3904,1.3911,1.3975,1.4027,1.4057,1.4116,1.415,1.4219,1.4201,1.4227,1.4275,1.4313,1.4372,1.4307,1.4393,1.4395,1.4375,1.4484,1.4492,1.4583,1.4452,1.4454,1.4456,0,1.3702,1.3762,1.3881,1.3944,1.3972,1.4029,1.4098,1.4155,1.4214,1.4232,1.4281,1.4292,1.4369,1.4335,1.4441,1.4396,1.4432,1.4456,1.446,1.4469,1.4429,1.4495,1.4613,1.4626,1.4477,1.4475,1.4473,0,1.3763,1.3873,1.3958,1.3989,1.4065,1.4105,1.4139,1.4195,1.4237,1.4298,1.4325,1.4394,1.4432,1.4485,1.4515,1.4488,1.4619,1.4587,1.4636,1.4635,1.4663,1.4661,1.4788,1.4688,1.4688,1.4687,1.4687,0,1.3868,1.3941,1.3986,1.4039,1.412,1.4147,1.4227,1.426,1.431,1.4369,1.438,1.4435,1.4471,1.4532,1.4556,1.4639,1.4657,1.4674,1.4679,1.4672,1.467,1.4697,1.4691,1.4691,1.469,1.469,1.4689,0,1.395,1.3983,1.4076,1.414,1.4157,1.4214,1.4269,1.432,1.4349,1.4424,1.4443,1.449,1.4561,1.4596,1.4686,1.4702,1.4796,1.4798,1.4775,1.4777,1.4824,1.4818,1.4971,1.4992,1.4879,1.488,1.4881,0,1.4014,1.407,1.4139,1.4178,1.4212,1.4276,1.4319,1.4348,1.4392,1.4462,1.4504,1.4576,1.4635,1.4749,1.4791,1.4859,1.4862,1.4911,1.4873,1.4863,1.4862,1.4857,1.4862,1.4918,1.4919,1.492,1.492,0,1.4125,1.4138,1.4199,1.4264,1.4314,1.4368,1.4421,1.4453,1.449,1.4539,1.4611,1.4657,1.4747,1.4818,1.4888,1.4924,1.4928,1.4932,1.4947,1.494,1.4924,1.4932,1.4793,1.4928,1.4928,1.4927,1.4927,1.4926,1.4199,1.4248,1.4304,1.437,1.4412,1.4461,1.4511,1.4546,1.4607,1.4681,1.4695,1.4772,1.4828,1.4923,1.496,1.5021,1.501,1.5032,1.5037,1.5042,1.5043,1.4915,1.5034,1.5034,1.5034,1.5034,1.5034,0,1.4309,1.4345,1.4406,1.4478,1.453,1.4529,1.4587,1.463,1.4697,1.4749,1.4806,1.4888,1.4956,1.5003,1.5072,1.5112,1.5115,1.5129,1.5126,1.5134,1.505,1.503,1.5124,1.5124,1.5124,1.5124,1.5124,1.5124,1.4373,1.4455,1.4475,1.4578,1.4613,1.4687,1.472,1.4765,1.4806,1.4897,1.4953,1.4982,1.5032,1.5105,1.5167,1.5179,1.5203,1.5217,1.5229,1.5149,1.514,1.5131,1.5112,1.5222,1.5222,1.5307,1.5308,1.5308]},{"header":{"parameterUnit":"m.s-1","parameterCategory":1,"la1":30.2991,"la2":30.254,"lo1":-89.0895,"lo2":-89.0444,"dy":0.0017,"dx":0.0017,"nx":28,"ny":28,"refTime":"2024-06-21T21:00:00:Z","depth":0,"parameterNumber":3,"parameterNumberName":"V-component_of_WINDS"},"data":[0,0,0,0,0,0,0,0,0,0,0,0,0,0,0,0,0,0,0,0,0,0,0,0,0,0,0,0,0,0,0,0,0,0,0,0,0,0,0,0,0,0,0,0,0,0,0,0,0,0,0,0,0,0,0,0,0,0,2.9903,2.9903,0,2.9895,2.9895,2.9895,2.9882,2.9882,2.9881,2.9881,2.9871,2.9871,2.9871,0,0,0,0,0,0,0,0,0,0,0,0,0,2.9904,2.9904,2.9903,2.9903,2.9902,2.9895,2.9895,2.9894,2.9882,2.9882,2.9881,2.9881,2.9871,2.9871,2.9871,0,0,0,0,0,0,0,0,0,0,0,0,0,2.99,2.9904,2.9903,2.9895,2.9895,2.9895,2.9895,2.9894,2.9882,2.9882,2.9881,2.9881,2.9871,2.9871,2.9871,2.9877,0,0,2.9871,2.9871,0,0,0,0,0,0,0,0,2.99,2.99,2.9896,2.9896,2.9895,2.9889,2.9891,2.9889,2.9882,2.9887,2.9881,2.9881,2.9877,2.9877,2.9876,2.9877,2.9876,2.9871,2.9871,2.9871,2.9871,0,0,0,0,0,0,0,2.9901,2.99,2.9899,2.9896,2.9896,2.9891,2.989,2.9891,2.9884,2.9886,2.9885,2.9885,2.9877,2.9876,2.9875,2.9876,2.9871,2.9871,2.9871,2.987,2.9879,2.9879,0,0,0,0,0,0,2.9902,2.9901,2.99,2.9899,2.9897,2.9892,2.9891,2.9891,2.9884,2.9882,2.9885,2.9884,2.9876,2.9876,2.9875,2.988,2.9871,2.987,2.987,2.9879,2.9879,2.9879,0,0,0,0,0,0,2.9902,2.9902,2.99,2.99,2.9899,2.9892,2.9893,2.9891,2.989,2.9883,2.9881,2.9886,2.9876,2.9875,2.9876,2.988,2.987,2.987,2.9878,2.9879,2.9879,2.9892,0,0,0,0,0,0,2.9903,2.9903,2.9906,2.99,2.9899,2.9903,2.9893,2.9891,2.9891,2.9889,2.9883,2.9882,2.9876,2.9876,2.9876,2.9879,2.987,2.9878,2.9878,2.9879,2.9891,2.9892,2.9894,0,0,0,0,0,2.9903,2.991,2.9906,2.9906,2.9903,2.9903,2.9902,2.9896,2.9891,2.9893,2.9888,2.9882,2.9879,2.9877,2.9876,2.9879,2.9878,2.9878,2.9879,2.989,2.9892,2.9894,0,0,0,0,0,0,2.9916,2.9909,2.9905,2.991,2.9907,2.9901,2.9904,2.9898,2.9896,2.9895,2.9886,2.9885,2.9887,2.9883,2.988,2.9884,2.9877,2.9878,2.9886,2.9888,2.9889,2.989,2.987,0,0,0,0,0,2.9919,2.9921,2.9914,2.9919,2.9918,2.9911,2.9911,2.9906,2.9902,2.9901,2.9896,2.9892,2.9889,2.9889,2.9887,2.989,2.9888,2.9892,2.9893,2.9895,2.9895,2.9895,2.9896,2.9881,2.9881,2.9881,0,0,2.9927,2.9923,2.9924,2.9922,2.9919,2.9919,2.991,2.9911,2.9911,2.9901,2.9901,2.9897,2.9892,2.9894,2.9894,2.9891,2.9898,2.9895,2.9896,2.9896,2.9895,2.9897,2.9898,2.9882,2.9882,2.9882,0,0,2.994,2.9938,2.9941,2.9938,2.9934,2.9929,2.993,2.9924,2.9921,2.9921,2.9913,2.9912,2.9909,2.9905,2.9903,2.9913,2.9906,2.9912,2.9919,2.9919,2.992,2.9921,2.9923,2.9924,2.9913,2.9913,2.9913,0,2.995,2.995,2.9944,2.9945,2.9943,2.9934,2.9936,2.9934,2.9929,2.9927,2.9923,2.9919,2.9915,2.9915,2.9917,2.9916,2.9915,2.9913,2.9921,2.9922,2.9923,2.9924,2.9925,2.9913,2.9913,2.9913,2.9913,0,2.9961,2.9962,2.9965,2.996,2.9959,2.9961,2.9953,2.9952,2.9947,2.9942,2.9941,2.9936,2.9932,2.9931,2.9927,2.993,2.9928,2.9923,2.9916,2.9925,2.9926,2.9927,2.9914,2.9914,2.9914,2.9914,0,0,2.9983,2.9974,2.9975,2.9972,2.9966,2.9966,2.9966,2.9962,2.9961,2.9958,2.9957,2.9954,2.9949,2.9946,2.994,2.994,2.9946,2.9934,2.9934,2.9936,2.9948,2.9951,2.9952,2.9942,2.9942,2.9942,2.9948,0,2.9994,2.9996,2.9989,2.9991,2.999,2.9981,2.9981,2.9976,2.9971,2.9969,2.9963,2.9961,2.9955,2.9952,2.9952,2.9945,2.9948,2.9945,2.9939,2.9939,2.9941,2.9953,2.9957,2.9963,2.9948,2.9948,2.9949,0,3.0008,3.0005,3.0007,2.9999,2.9999,2.9999,2.9994,2.9993,2.9986,2.9982,2.9979,2.9972,2.997,2.9964,2.9961,2.9959,2.9956,2.9952,2.9952,2.9951,2.9944,2.9951,2.9965,2.9965,2.995,2.995,2.9949,0,3.0022,3.0018,3.0019,3.0017,3.0008,3.0008,3.0004,2.9998,2.9995,2.9991,2.9989,2.9984,2.9981,2.9977,2.9968,2.9965,2.9965,2.9958,2.996,2.9961,2.9961,2.9961,2.9973,2.996,2.996,2.996,2.996,0,3.0034,3.0036,3.0025,3.0025,3.0026,3.0017,3.0018,3.0013,3.0007,3.0005,2.9996,2.9995,2.9984,2.998,2.9973,2.9971,2.997,2.9965,2.9963,2.9966,2.9966,2.9963,2.9963,2.996,2.996,2.996,2.996,0,3.005,3.0043,3.0043,3.0034,3.0032,3.0033,3.0025,3.0024,3.0018,3.0015,3.0014,3.0004,2.9999,2.999,2.9983,2.9978,2.9977,2.9974,2.9979,2.9978,2.998,2.9979,2.999,2.9991,2.9978,2.9979,2.9979,0,3.0058,3.0059,3.005,3.0049,3.0045,3.0043,3.004,3.0031,3.0028,3.0021,3.002,3.0015,3.001,3.0003,2.9994,2.9988,2.9984,2.9988,2.9983,2.9985,2.9983,2.9983,2.9982,2.999,2.999,2.999,2.999,0,3.0073,3.0069,3.0066,3.0061,3.0058,3.0054,3.0049,3.0048,3.0038,3.0035,3.003,3.0026,3.0019,3.0013,3.0005,3.0,2.9993,2.9992,2.9992,2.9994,2.9996,2.9994,2.9981,2.9991,2.9991,2.9991,2.9991,2.9991,3.0084,3.0084,3.0077,3.0074,3.0069,3.0064,3.0063,3.0056,3.0052,3.0046,3.004,3.0036,3.0028,3.0017,3.0012,3.0007,3.0004,3.0004,3.0004,3.0004,3.0004,2.9998,3.0006,3.0006,3.0006,3.0005,3.0005,0,3.0097,3.0092,3.0089,3.0082,3.0079,3.0073,3.0067,3.0065,3.0061,3.0054,3.005,3.0043,3.0037,3.0028,3.0021,3.0019,3.0015,3.0017,3.0017,3.0015,3.0008,3.0009,3.002,3.002,3.002,3.002,3.002,3.002,3.0103,3.0102,3.0097,3.0093,3.0088,3.0084,3.008,3.0076,3.007,3.0064,3.0059,3.0053,3.0045,3.0037,3.0031,3.0028,3.0025,3.0028,3.0024,3.0018,3.0016,3.0015,3.0015,3.0028,3.0028,3.0032,3.0032,3.0032]}]]